| time (UTC) | temp F | wind direction | speed MPH | gust MPH | rain 1hr in | rain 24hr in | rain mn in | humidity % | barometer mb |
| 20260505052509 | 61 | 112 | 0.0 | 2.0 | 0.00 | 0.00 | 0.00 | 70 | 1011.4 |
| 20260505052009 | 61 | 102 | 0.0 | 2.0 | 0.00 | 0.00 | 0.00 | 70 | 1011.4 |
| 20260505051526 | 61 | 102 | 0.0 | 2.0 | 0.00 | 0.00 | 0.00 | 70 | 1011.4 |
| 20260505051005 | 62 | 102 | 0.0 | 2.0 | 0.00 | 0.00 | 0.00 | 69 | 1011.3 |
| 20260505050507 | 62 | 102 | 0.0 | 1.0 | 0.00 | 0.00 | 0.00 | 68 | 1011.3 |
| 20260505041506 | 64 | 360 | 0.0 | 2.0 | 0.00 | 0.00 | 0.00 | 63 | 1011.0 |
| 20260505041003 | 65 | 348 | 0.0 | 2.0 | 0.00 | 0.00 | 0.00 | 62 | 1010.9 |
| 20260505040504 | 65 | 237 | 0.0 | 2.0 | 0.00 | 0.00 | 0.00 | 62 | 1010.9 |
| 20260505040018 | 65 | 225 | 0.0 | 1.0 | 0.00 | 0.00 | 0.00 | 62 | 1010.8 |
| 20260505035511 | 65 | 225 | 0.0 | 2.0 | 0.00 | 0.00 | 0.00 | 61 | 1010.6 |
| 20260505035004 | 66 | 224 | 1.0 | 2.0 | 0.00 | 0.00 | 0.00 | 61 | 1010.4 |
| 20260505034516 | 66 | 262 | 0.0 | 2.0 | 0.00 | 0.00 | 0.00 | 60 | 1010.4 |
| 20260505034004 | 66 | 244 | 0.0 | 2.0 | 0.00 | 0.00 | 0.00 | 60 | 1010.4 |
| 20260505033505 | 67 | 253 | 0.0 | 4.0 | 0.00 | 0.00 | 0.00 | 59 | 1010.3 |
| 20260505033022 | 67 | 269 | 2.0 | 4.0 | 0.00 | 0.00 | 0.00 | 59 | 1010.3 |
| 20260505032502 | 67 | 284 | 1.0 | 3.0 | 0.00 | 0.00 | 0.00 | 58 | 1010.2 |
| 20260505032003 | 67 | 283 | 1.0 | 3.0 | 0.00 | 0.00 | 0.00 | 57 | 1010.3 |
| 20260505031503 | 68 | 261 | 0.0 | 5.0 | 0.00 | 0.00 | 0.00 | 57 | 1010.2 |
| 20260505031003 | 68 | 9 | 2.0 | 5.0 | 0.00 | 0.00 | 0.00 | 57 | 1010.2 |
| 20260505030503 | 68 | 309 | 1.0 | 10.0 | 0.00 | 0.00 | 0.00 | 56 | 1010.1 |
| 20260505030015 | 68 | 321 | 3.0 | 10.0 | 0.00 | 0.00 | 0.00 | 56 | 1010.1 |
| 20260505025504 | 68 | 304 | 2.0 | 9.0 | 0.00 | 0.00 | 0.00 | 55 | 1009.9 |
| 20260505025004 | 69 | 252 | 4.0 | 9.0 | 0.00 | 0.00 | 0.00 | 54 | 1009.9 |
| 20260505024512 | 69 | 294 | 4.0 | 9.0 | 0.00 | 0.00 | 0.00 | 54 | 1009.7 |
| 20260505024008 | 69 | 299 | 2.0 | 8.0 | 0.00 | 0.00 | 0.00 | 53 | 1009.7 |
| 20260505023507 | 70 | 269 | 4.0 | 9.0 | 0.00 | 0.00 | 0.00 | 53 | 1009.7 |
| 20260505023018 | 70 | 315 | 5.0 | 9.0 | 0.00 | 0.00 | 0.00 | 53 | 1009.7 |
| 20260505022508 | 70 | 289 | 3.0 | 9.0 | 0.00 | 0.00 | 0.00 | 52 | 1009.8 |
| 20260505022011 | 71 | 360 | 4.0 | 9.0 | 0.00 | 0.00 | 0.00 | 51 | 1009.8 |
| 20260505021522 | 71 | 344 | 4.0 | 8.0 | 0.00 | 0.00 | 0.00 | 51 | 1009.8 |
| 20260505021007 | 71 | 317 | 2.0 | 9.0 | 0.00 | 0.00 | 0.00 | 49 | 1009.8 |
| 20260505020503 | 71 | 295 | 4.0 | 11.0 | 0.00 | 0.00 | 0.00 | 49 | 1009.8 |
| 20260505020008 | 72 | 271 | 7.0 | 13.0 | 0.00 | 0.00 | 0.00 | 47 | 1009.8 |
| 20260505015509 | 72 | 294 | 7.0 | 13.0 | 0.00 | 0.00 | 0.00 | 46 | 1009.8 |
| 20260505015006 | 73 | 306 | 5.0 | 11.0 | 0.00 | 0.00 | 0.00 | 45 | 1009.7 |
| 20260505014512 | 74 | 252 | 6.0 | 12.0 | 0.00 | 0.00 | 0.00 | 43 | 1009.7 |
| 20260505014004 | 75 | 290 | 6.0 | 12.0 | 0.00 | 0.00 | 0.00 | 42 | 1009.7 |
| 20260505013504 | 75 | 246 | 4.0 | 11.0 | 0.00 | 0.00 | 0.00 | 43 | 1009.7 |
| 20260505013016 | 76 | 258 | 4.0 | 9.0 | 0.00 | 0.00 | 0.00 | 43 | 1009.7 |
| 20260505012506 | 77 | 275 | 3.0 | 9.0 | 0.00 | 0.00 | 0.00 | 43 | 1009.6 |
| 20260505012009 | 77 | 55 | 2.0 | 9.0 | 0.00 | 0.00 | 0.00 | 43 | 1009.6 |
| 20260505011522 | 78 | 254 | 4.0 | 8.0 | 0.00 | 0.00 | 0.00 | 43 | 1009.7 |
| 20260505011007 | 78 | 259 | 4.0 | 8.0 | 0.00 | 0.00 | 0.00 | 43 | 1009.7 |
| 20260505010506 | 79 | 289 | 4.0 | 7.0 | 0.00 | 0.00 | 0.00 | 41 | 1009.6 |
| 20260505010006 | 79 | 333 | 2.0 | 6.0 | 0.00 | 0.00 | 0.00 | 40 | 1009.6 |
| 20260505005503 | 79 | 234 | 3.0 | 6.0 | 0.00 | 0.00 | 0.00 | 37 | 1009.6 |
| 20260505005003 | 79 | 206 | 3.0 | 8.0 | 0.00 | 0.00 | 0.00 | 37 | 1009.6 |
| 20260505004516 | 80 | 296 | 4.0 | 8.0 | 0.00 | 0.00 | 0.00 | 38 | 1009.6 |
| 20260505004003 | 80 | 221 | 4.0 | 6.0 | 0.00 | 0.00 | 0.00 | 39 | 1009.6 |
| 20260505003514 | 80 | 274 | 3.0 | 7.0 | 0.00 | 0.00 | 0.00 | 39 | 1009.6 |
| 20260505003015 | 80 | 284 | 4.0 | 8.0 | 0.00 | 0.00 | 0.00 | 39 | 1009.6 |
| 20260505002508 | 81 | 333 | 3.0 | 8.0 | 0.00 | 0.00 | 0.00 | 39 | 1009.5 |
| 20260505002007 | 81 | 292 | 3.0 | 8.0 | 0.00 | 0.00 | 0.00 | 39 | 1009.5 |
| 20260505001522 | 81 | 257 | 1.0 | 8.0 | 0.00 | 0.00 | 0.00 | 38 | 1009.5 |
| 20260505001007 | 81 | 242 | 1.0 | 9.0 | 0.00 | 0.00 | 0.00 | 37 | 1009.6 |
| 20260505000507 | 81 | 267 | 3.0 | 9.0 | 0.00 | 0.00 | 0.00 | 37 | 1009.6 |
| 20260505000038 | 81 | 217 | 3.0 | 9.0 | 0.00 | 0.00 | 0.00 | 37 | 1009.7 |
| 20260504235509 | 81 | 270 | 3.0 | 9.0 | 0.00 | 0.00 | 0.00 | 35 | 1009.7 |
| 20260504235009 | 81 | 292 | 2.0 | 7.0 | 0.00 | 0.00 | 0.00 | 36 | 1009.7 |
| 20260504234512 | 81 | 164 | 4.0 | 7.0 | 0.00 | 0.00 | 0.00 | 36 | 1009.7 |
| 20260504234003 | 81 | 202 | 1.0 | 8.0 | 0.00 | 0.00 | 0.00 | 34 | 1009.7 |
| 20260504233504 | 82 | 207 | 3.0 | 9.0 | 0.00 | 0.00 | 0.00 | 34 | 1009.9 |
| 20260504233014 | 82 | 171 | 4.0 | 9.0 | 0.00 | 0.00 | 0.00 | 34 | 1009.8 |
| 20260504232505 | 82 | 258 | 3.0 | 8.0 | 0.00 | 0.00 | 0.00 | 34 | 1009.7 |
| 20260504232007 | 83 | 235 | 2.0 | 10.0 | 0.00 | 0.00 | 0.00 | 34 | 1009.8 |
| 20260504231520 | 83 | 294 | 3.0 | 10.0 | 0.00 | 0.00 | 0.00 | 33 | 1009.9 |
| 20260504231013 | 83 | 316 | 3.0 | 6.0 | 0.00 | 0.00 | 0.00 | 34 | 1010.0 |
| 20260504230506 | 83 | 207 | 3.0 | 6.0 | 0.00 | 0.00 | 0.00 | 34 | 1009.9 |
| 20260504230021 | 84 | 234 | 2.0 | 8.0 | 0.00 | 0.00 | 0.00 | 32 | 1010.0 |
| 20260504225508 | 84 | 296 | 3.0 | 8.0 | 0.00 | 0.00 | 0.00 | 32 | 1010.0 |
| 20260504225007 | 84 | 267 | 4.0 | 7.0 | 0.00 | 0.00 | 0.00 | 33 | 1009.9 |
| 20260504224526 | 84 | 246 | 3.0 | 8.0 | 0.00 | 0.00 | 0.00 | 33 | 1010.0 |
| 20260504224013 | 84 | 250 | 1.0 | 10.0 | 0.00 | 0.00 | 0.00 | 31 | 1009.9 |
| 20260504223504 | 84 | 290 | 4.0 | 9.0 | 0.00 | 0.00 | 0.00 | 31 | 1009.9 |
| 20260504223012 | 84 | 257 | 3.0 | 9.0 | 0.00 | 0.00 | 0.00 | 30 | 1010.0 |
| 20260504222504 | 85 | 149 | 2.0 | 9.0 | 0.00 | 0.00 | 0.00 | 33 | 1010.0 |
| 20260504222007 | 85 | 238 | 4.0 | 8.0 | 0.00 | 0.00 | 0.00 | 35 | 1009.9 |
| 20260504221525 | 85 | 13 | 1.0 | 9.0 | 0.00 | 0.00 | 0.00 | 35 | 1010.1 |
| 20260504221007 | 85 | 15 | 2.0 | 9.0 | 0.00 | 0.00 | 0.00 | 33 | 1010.2 |
| 20260504220508 | 85 | 347 | 3.0 | 8.0 | 0.00 | 0.00 | 0.00 | 35 | 1010.3 |
| 20260504220038 | 84 | 282 | 2.0 | 8.0 | 0.00 | 0.00 | 0.00 | 34 | 1010.3 |
| 20260504215510 | 84 | 254 | 1.0 | 8.0 | 0.00 | 0.00 | 0.00 | 34 | 1010.4 |
| 20260504215010 | 84 | 9 | 2.0 | 6.0 | 0.00 | 0.00 | 0.00 | 32 | 1010.4 |
| 20260504214528 | 84 | 352 | 3.0 | 8.0 | 0.00 | 0.00 | 0.00 | 35 | 1010.6 |
| 20260504214006 | 84 | 226 | 4.0 | 8.0 | 0.00 | 0.00 | 0.00 | 36 | 1010.6 |
| 20260504213509 | 84 | 344 | 3.0 | 8.0 | 0.00 | 0.00 | 0.00 | 34 | 1010.6 |
| 20260504213029 | 84 | 273 | 3.0 | 7.0 | 0.00 | 0.00 | 0.00 | 35 | 1010.7 |
| 20260504212503 | 84 | 285 | 3.0 | 8.0 | 0.00 | 0.00 | 0.00 | 37 | 1010.8 |
| 20260504212009 | 84 | 302 | 2.0 | 8.0 | 0.00 | 0.00 | 0.00 | 40 | 1010.8 |
| 20260504211515 | 83 | 300 | 5.0 | 8.0 | 0.00 | 0.00 | 0.00 | 37 | 1010.8 |
| 20260504211007 | 83 | 19 | 2.0 | 8.0 | 0.00 | 0.00 | 0.00 | 37 | 1010.8 |
| 20260504210507 | 83 | 279 | 3.0 | 8.0 | 0.00 | 0.00 | 0.00 | 37 | 1010.8 |
| 20260504210020 | 83 | 276 | 4.0 | 8.0 | 0.00 | 0.00 | 0.00 | 37 | 1010.9 |
| 20260504205511 | 83 | 286 | 2.0 | 8.0 | 0.00 | 0.00 | 0.00 | 39 | 1010.9 |
| 20260504205009 | 83 | 306 | 3.0 | 8.0 | 0.00 | 0.00 | 0.00 | 40 | 1010.9 |
| 20260504204535 | 83 | 301 | 4.0 | 8.0 | 0.00 | 0.00 | 0.00 | 39 | 1010.9 |
| 20260504204007 | 82 | 317 | 3.0 | 8.0 | 0.00 | 0.00 | 0.00 | 37 | 1010.9 |
| 20260504203510 | 82 | 318 | 3.0 | 8.0 | 0.00 | 0.00 | 0.00 | 40 | 1011.0 |
| 20260504203029 | 82 | 351 | 2.0 | 7.0 | 0.00 | 0.00 | 0.00 | 40 | 1011.0 |
| 20260504202510 | 82 | 352 | 2.0 | 6.0 | 0.00 | 0.00 | 0.00 | 40 | 1010.9 |
| 20260504202008 | 81 | 250 | 1.0 | 6.0 | 0.00 | 0.00 | 0.00 | 39 | 1011.0 |
| 20260504201527 | 81 | 348 | 3.0 | 6.0 | 0.00 | 0.00 | 0.00 | 45 | 1011.0 |
| 20260504201003 | 80 | 292 | 3.0 | 7.0 | 0.00 | 0.00 | 0.00 | 38 | 1011.0 |
| 20260504200503 | 80 | 286 | 1.0 | 7.0 | 0.00 | 0.00 | 0.00 | 37 | 1011.0 |
| 20260504200010 | 80 | 230 | 2.0 | 6.0 | 0.00 | 0.00 | 0.00 | 42 | 1011.1 |
| 20260504195503 | 80 | 302 | 3.0 | 6.0 | 0.00 | 0.00 | 0.00 | 40 | 1011.1 |
| 20260504195003 | 79 | 317 | 2.0 | 8.0 | 0.00 | 0.00 | 0.00 | 40 | 1011.0 |
| 20260504194504 | 79 | 296 | 3.0 | 8.0 | 0.00 | 0.00 | 0.00 | 40 | 1011.1 |
| 20260504194006 | 79 | 304 | 3.0 | 7.0 | 0.00 | 0.00 | 0.00 | 44 | 1011.1 |
| 20260504193504 | 78 | 342 | 3.0 | 8.0 | 0.00 | 0.00 | 0.00 | 47 | 1011.1 |
| 20260504193008 | 78 | 220 | 4.0 | 9.0 | 0.00 | 0.00 | 0.00 | 43 | 1011.1 |
| 20260504192504 | 77 | 288 | 4.0 | 9.0 | 0.00 | 0.00 | 0.00 | 46 | 1011.3 |
| 20260504192003 | 76 | 267 | 1.0 | 9.0 | 0.00 | 0.00 | 0.00 | 46 | 1011.2 |
| 20260504191508 | 76 | 207 | 4.0 | 9.0 | 0.00 | 0.00 | 0.00 | 44 | 1011.2 |
| 20260504191005 | 76 | 130 | 2.0 | 9.0 | 0.00 | 0.00 | 0.00 | 45 | 1011.2 |
| 20260504190503 | 76 | 173 | 4.0 | 9.0 | 0.00 | 0.00 | 0.00 | 46 | 1011.2 |
| 20260504190013 | 76 | 182 | 4.0 | 9.0 | 0.00 | 0.00 | 0.00 | 43 | 1011.3 |
| 20260504185506 | 76 | 257 | 2.0 | 9.0 | 0.00 | 0.00 | 0.00 | 51 | 1011.3 |
| 20260504185005 | 76 | 232 | 2.0 | 7.0 | 0.00 | 0.00 | 0.00 | 46 | 1011.3 |
| 20260504184506 | 76 | 192 | 3.0 | 7.0 | 0.00 | 0.00 | 0.00 | 47 | 1011.3 |
| 20260504184003 | 76 | 169 | 1.0 | 6.0 | 0.00 | 0.00 | 0.00 | 48 | 1011.3 |
| 20260504183502 | 76 | 161 | 1.0 | 6.0 | 0.00 | 0.00 | 0.00 | 48 | 1011.3 |
| 20260504183003 | 75 | 191 | 1.0 | 4.0 | 0.00 | 0.00 | 0.00 | 49 | 1011.4 |
| 20260504182502 | 75 | 186 | 1.0 | 4.0 | 0.00 | 0.00 | 0.00 | 51 | 1011.4 |
| 20260504182003 | 75 | 130 | 1.0 | 3.0 | 0.00 | 0.00 | 0.00 | 53 | 1011.3 |
| 20260504181511 | 74 | 5 | 2.0 | 3.0 | 0.00 | 0.00 | 0.00 | 52 | 1011.3 |
| 20260504181007 | 74 | 134 | 1.0 | 5.0 | 0.00 | 0.00 | 0.00 | 52 | 1011.3 |
| 20260504180504 | 73 | 343 | 1.0 | 5.0 | 0.00 | 0.00 | 0.00 | 53 | 1011.2 |
| 20260504180013 | 73 | 154 | 2.0 | 3.0 | 0.00 | 0.00 | 0.00 | 1011.2 | |
| 20260504175509 | 73 | 157 | 0.0 | 4.0 | 0.00 | 0.00 | 0.00 | 1011.3 | |
| 20260504175008 | 73 | 269 | 1.0 | 4.0 | 0.00 | 0.00 | 0.00 | 60 | 1011.2 |
| 20260504174518 | 73 | 92 | 1.0 | 3.0 | 0.00 | 0.00 | 0.00 | 60 | 1011.2 |
| 20260504174003 | 72 | 100 | 1.0 | 3.0 | 0.00 | 0.00 | 0.00 | 52 | 1011.2 |
| 20260504173504 | 72 | 152 | 0.0 | 2.0 | 0.00 | 0.00 | 0.00 | 56 | 1011.2 |
| 20260504173004 | 71 | 165 | 1.0 | 2.0 | 0.00 | 0.00 | 0.00 | 54 | 1011.3 |
| 20260504172503 | 71 | 293 | 0.0 | 2.0 | 0.00 | 0.00 | 0.00 | 58 | 1011.3 |
| 20260504172006 | 70 | 262 | 0.0 | 4.0 | 0.00 | 0.00 | 0.00 | 59 | 1011.3 |
| 20260504171508 | 70 | 147 | 2.0 | 4.0 | 0.00 | 0.00 | 0.00 | 60 | 1011.3 |
| 20260504171005 | 70 | 191 | 1.0 | 3.0 | 0.00 | 0.00 | 0.00 | 57 | 1011.3 |
| 20260504170504 | 69 | 315 | 0.0 | 2.0 | 0.00 | 0.00 | 0.00 | 60 | 1011.3 |
| 20260504151011 | 54 | 98 | 0.0 | 2.0 | 0.00 | 0.00 | 0.00 | 88 | 1011.0 |
| 20260504150504 | 53 | 100 | 0.0 | 2.0 | 0.00 | 0.00 | 0.00 | 89 | 1011.1 |
| 20260504141006 | 49 | 19 | 0.0 | 2.0 | 0.00 | 0.00 | 0.00 | 91 | 1010.7 |
| 20260504140507 | 49 | 19 | 0.0 | 2.0 | 0.00 | 0.00 | 0.00 | 91 | 1010.7 |
| 20260504130506 | 49 | 19 | 0.0 | 0.0 | 0.00 | 0.00 | 0.00 | 87 | 1010.2 |
| 20260504110504 | 51 | 5 | 0.0 | 0.0 | 0.00 | 0.00 | 0.00 | 85 | 1010.3 |
| 20260504100507 | 52 | 344 | 0.0 | 2.0 | 0.00 | 0.00 | 0.00 | 85 | 1010.2 |
| 20260504082003 | 55 | 321 | 0.0 | 2.0 | 0.00 | 0.00 | 0.00 | 82 | 1010.2 |
| 20260504081509 | 55 | 321 | 0.0 | 2.0 | 0.00 | 0.00 | 0.00 | 82 | 1010.2 |
| 20260504081004 | 55 | 321 | 0.0 | 2.0 | 0.00 | 0.00 | 0.00 | 82 | 1010.1 |
| 20260504080507 | 55 | 321 | 0.0 | 2.0 | 0.00 | 0.00 | 0.00 | 82 | 1010.2 |